This is the latest recevied weather packets stored in our database for station/object KI5NXU. If no packets are shown the sender has not sent any weather packets the latest 10 day(s).
| Time | Temp. | Humidity | Pressure | Rain* | Wind** | Luminosity | Snow |
|---|---|---|---|---|---|---|---|
| 1777492362 | 17.22° C | 73% | 1014 hPa | 0 mm | - | 169 W/m² | - |
| 1777492059 | 17.22° C | 73% | 1014.2 hPa | 0 mm | - | 195 W/m² | - |
| 1777491756 | 17.78° C | 73% | 1014.3 hPa | 0 mm | - | 204 W/m² | - |
| 1777491453 | 17.22° C | 73% | 1014.2 hPa | 0 mm | - | 235 W/m² | - |
| 1777491150 | 17.22° C | 73% | 1014.2 hPa | 0 mm | - | 201 W/m² | - |
| 1777490846 | 17.22° C | 73% | 1014.4 hPa | 0 mm | - | 176 W/m² | - |
| 1777490542 | 17.22° C | 74% | 1014.3 hPa | 0 mm | - | 168 W/m² | - |
| 1777490239 | 17.78° C | 72% | 1014.1 hPa | 0 mm | - | 234 W/m² | - |
| 1777489936 | 17.22° C | 72% | 1014.1 hPa | 0 mm | - | 273 W/m² | - |
| 1777489634 | 17.78° C | 71% | 1014.3 hPa | 0 mm | - | 246 W/m² | - |
| 1777489330 | 17.22° C | 72% | 1014.1 hPa | 0 mm | - | 392 W/m² | - |
| 1777489027 | 17.22° C | 73% | 1014.3 hPa | 0 mm | - | 351 W/m² | - |
| 1777488724 | 17.78° C | 73% | 1014.4 hPa | 0 mm | - | 379 W/m² | - |
| 1777488421 | 17.22° C | 74% | 1014.5 hPa | 0 mm | - | 431 W/m² | - |
| 1777488120 | 17.78° C | 73% | 1014.8 hPa | 0 mm | - | 484 W/m² | - |
| 1777487817 | 16.67° C | 74% | 1015 hPa | 0 mm | - | 407 W/m² | - |
| 1777487515 | 16.11° C | 74% | 1014.9 hPa | 0 mm | - | 197 W/m² | - |
| 1777487212 | 16.67° C | 76% | 1015 hPa | 0 mm | - | 207 W/m² | - |
| 1777486908 | 16.11° C | 75% | 1015 hPa | 0 mm | - | 232 W/m² | - |
| 1777486605 | 16.67° C | 76% | 1015.3 hPa | 0 mm | - | 223 W/m² | - |
| 1777486303 | 16.11° C | 76% | 1015.8 hPa | 0 mm | - | 307 W/m² | - |
| 1777486000 | 16.67° C | 77% | 1015.9 hPa | 0 mm | - | 234 W/m² | - |
| 1777485697 | 16.67° C | 77% | 1016.4 hPa | 0 mm | - | 221 W/m² | - |
| 1777485392 | 16.11° C | 76% | 1016.2 hPa | 0 mm | - | 203 W/m² | - |
| 1777485088 | 15.56° C | 78% | 1016.4 hPa | 0 mm | - | 157 W/m² | - |
* Rain latest hour (hover to see other rain measurements)
** Current wind speed in m/s (hover to see current wind gust speed)